Tracking 32422 objects as of 7-Dec-2025
HD Live streaming from Space Station
objects crossing your sky now

STARLINK-2619

Track STARLINK-2619 now!
10-day predictions
STARLINK-2619 is classified as:


NORAD ID: 48475
Int'l Code: 2021-040AZ
Perigee: 365.5 km
Apogee: 369.2 km
Inclination: 53.0 °
Period: 91.7 minutes
Semi major axis: 6738 km
RCS: Unknown
Launch date: May 9, 2021
Source: United States (US)
Launch site: AIR FORCE EASTERN TEST RANGE (AFETR)
Your satellite tracking list
Your tracking list is empty




NASA's NSSDC Master Catalog

Two Line Element Set (TLE):
1 48475U 21040AZ  25341.00002315  .00193342  00000-0  15741-2 0  9993
2 48475  53.0259 174.6994 0002790 167.1207 254.8214 15.69546874  5945
Source of the keplerian elements: AFSPC